Weather observations for the past three days for
New Haven, Tweed-New Haven Airport
Metric (Imperial)
Date Time (edt) Wind (kph) Vis. (km) Weather Sky Cond. Temperature (ºC) Relative Humidity Wind Chill (°C) Heat Index (°C) Pressure Precipitation (cm)
Air Dwpt 6 hour altimeter (cm) sea level (mb) 1 hr 3 hr 6 hr
Max. Min.
15 07:53 SW 6 14.48 A Few Clouds FEW120 26.1 23.9 26.1 23.9 88% 28 76 1013.1
15 06:53 SW 6 16.09 Overcast OVC095 25.6 23.3 87% 27 75.97 1012.9
15 05:53 Calm 16.09 Mostly Cloudy BKN100 25 22.8 88% 26 75.97 1012.8
15 04:53 Calm 16.09 Mostly Cloudy BKN110 25 23.3 90% 26 75.97 1012.8
15 03:53 Calm 6.44 Fog/Mist BKN110 24.4 23.3 94% 24 75.97 1012.7
15 02:53 Calm 9.66 Fog/Mist CLR 24.4 23.3 94% 24 75.97 1012.7
15 01:53 S 7 8.05 Fog/Mist CLR 24.4 22.8 27.8 24.4 91% 24 76 1013.2
15 00:53 S 6 11.27 Fair CLR 25.6 23.3 87% 27 76.05 1013.7
14 23:53 SW 7 14.48 Mostly Cloudy BKN080 26.1 23.9 88% 28 76.05 1013.9
14 22:53 S 6 14.48 Fair CLR 25.6 23.3 87% 27 76.07 1014.0
14 21:53 S 7 16.09 Fair CLR 25.6 22.8 85% 27 76.07 1014.2
14 20:53 S 6 16.09 Fair CLR 26.7 21.7 74% 29 76.05 1013.8
14 19:53 S 11 16.09 Fair CLR 27.8 21.7 31.1 27.8 69% 30 76.07 1014.0
14 18:53 S 17 16.09 Fair CLR 29.4 20.6 59% 32 76.05 1013.9
14 17:53 SW 20 16.09 Fair CLR 30 21.7 61% 33 76.07 1014.3
14 16:53 S 9 16.09 Mostly Cloudy BKN100 31.1 20.6 54% 34 76.07 1014.2
14 15:53 SW 15 16.09 A Few Clouds FEW100 30 20.6 57% 32 76.12 1014.8
14 14:53 SW 11 16.09 Fair CLR 30 20 55% 32 76.15 1015.3
14 13:53 S 11 16.09 Fair CLR 29.4 21.7 31.7 25.6 63% 32 76.2 1015.7
14 12:53 S 13 16.09 Fair CLR 30.6 21.1 57% 33 76.23 1016.2
14 11:53 W 7 16.09 Fair CLR 31.1 17.8 45% 32 76.28 1016.9
14 10:53 Calm 16.09 Fair CLR 31.1 15 38% 31 76.3 1017.3
14 09:53 Calm 16.09 A Few Clouds FEW070 29.4 17.8 50% 30 76.33 1017.5
14 08:53 Calm 16.09 Fair CLR 27.2 18.9 61% 28 76.33 1017.5
14 07:53 Calm 16.09 Fair CLR 25.6 20 25.6 22.2 71% 27 76.33 1017.5
14 06:53 Calm 16.09 Fair CLR 24.4 21.1 82% 25 76.33 1017.4
14 05:53 NW 6 14.48 Fair CLR 23.3 21.1 88% 76.3 1017.2
14 04:53 Calm 8.05 Fog/Mist CLR 22.2 21.1 94% 76.3 1017.1
14 03:53 N 6 4.83 Fog/Mist CLR 22.8 22.2 96% 76.28 1016.9
14 02:53 N 6 8.05 Fog/Mist CLR 23.9 22.8 94% 23 76.3 1017.2
14 01:53 Calm 12.87 Fair CLR 24.4 23.3 26.7 24.4 94% 24 76.3 1017.3
14 00:53 SW 6 12.87 Fair CLR 25.6 23.9 90% 27 76.35 1017.9
13 23:53 W 6 14.48 Fair CLR 25.6 23.9 90% 27 76.38 1018.2
13 22:53 Calm 14.48 Fair CLR 25.6 23.9 90% 27 76.35 1018.0
13 21:53 Calm 12.87 Fair CLR 25.6 24.4 93% 27 76.38 1018.3
13 20:53 SE 7 11.27 A Few Clouds FEW013 25.6 23.9 90% 27 76.35 1018.0
13 19:53 Calm 14.48 Fair CLR 26.1 24.4 28.9 26.1 90% 28 76.4 1018.5
13 18:53 S 9 16.09 Fair CLR 27.8 24.4 82% 32 76.38 1018.0
13 17:53 S 13 16.09 Fair CLR 27.8 23.9 79% 32 76.38 1018.3
13 16:53 S 13 16.09 Fair CLR 27.8 23.9 79% 32 76.38 1018.3
13 15:53 S 11 16.09 Fair CLR 28.9 23.3 72% 33 76.4 1018.6
13 14:53 SE 11 16.09 A Few Clouds FEW013 28.9 23.3 72% 33 76.43 1019.0
13 13:53 SE 7 16.09 Mostly Cloudy BKN020 BKN030 BKN060 27.2 23.3 27.2 23.3 79% 30 76.5 1019.9 3.94
13 12:53 S 11 16.09 Mostly Cloudy BKN010 BKN030 BKN060 26.7 23.3 82% 29 76.56 1020.4
13 11:53 S 11 16.09 Mostly Cloudy SCT007 BKN020 BKN025 26.1 23.9 88% 28 76.58 1021.1
13 10:53 Calm 11.27 Light Rain BKN005 BKN029 OVC060 24.4 23.3 94% 24 76.63 1021.5 0.36 3.94
13 09:53 W 7 9.66 Light Rain Fog/Mist FEW004 BKN022 OVC055 23.9 23.3 96% 23 76.63 1021.7 1.45
13 08:53 S 11 0.80 Heavy Rain Fog BKN003 OVC034 23.9 23.3 96% 23 76.68 1022.4 2.13
13 07:53 SW 9 1.61 Heavy Rain Fog/Mist BKN008 BKN050 OVC075 24.4 23.3 25 24.4 94% 24 76.68 1022.4 0.48 0.48
13 06:53 SW 6 14.48 Mostly Cloudy SCT045 BKN080 25 23.3 90% 26 76.66 1021.9
13 05:53 SW 6 16.09 Overcast FEW060 OVC120 25 23.3 90% 26 76.63 1021.7
13 04:53 Calm 16.09 Fair CLR 25 23.3 90% 26 76.61 1021.4
13 03:53 SW 6 16.09 Mostly Cloudy FEW049 SCT070 BKN100 25 23.3 90% 26 76.63 1021.5
13 02:53 SW 7 16.09 A Few Clouds FEW085 FEW110 25 23.3 90% 26 76.61 1021.4
13 01:53 S 7 16.09 Fair CLR 25 23.3 26.7 25 90% 26 76.63 1021.7
13 00:53 S 7 16.09 Fair CLR 25 23.3 90% 26 76.66 1022.0
12 23:53 Calm 16.09 Fair CLR 25 23.3 90% 26 76.71 1022.6
12 22:53 S 13 12.87 Partly Cloudy SCT031 25.6 23.9 90% 27 76.71 1022.6
12 21:53 S 11 12.87 Mostly Cloudy BKN036 BKN110 25.6 23.9 90% 27 76.68 1022.2
12 20:53 S 13 11.27 Mostly Cloudy FEW050 BKN065 BKN120 26.1 24.4 90% 28 76.66 1022.0
12 19:53 S 9 16.09 Partly Cloudy SCT055 26.7 24.4 27.8 25.6 87% 30 76.66 1022.0 0.03
12 18:53 S 7 16.09 Mostly Cloudy BKN055 27.8 24.4 82% 32 76.63 1021.5
12 17:53 SE 7 16.09 Mostly Cloudy BKN011 BKN018 27.2 24.4 85% 31 76.61 1021.2
12 16:53 S 9 16.09 Overcast BKN012 OVC020 26.7 23.9 85% 29 76.61 1021.2 0.03
12 15:53 S 7 12.87 Light Rain BKN015 OVC023 26.1 23.3 85% 28 76.63 1021.7
12 14:53 S 7 11.27 Overcast BKN018 OVC022 26.7 23.3 82% 29 76.63 1021.6 0.03
12 13:53 SW 6 3.22 Overcast with Haze BKN005 BKN016 OVC027 26.1 23.3 26.7 24.4 85% 28 76.63 1021.6 0.05
12 12:53 W 6 3.22 Light Rain Fog/Mist BKN005 BKN016 OVC025 24.4 23.3 94% 24 76.68 1022.2 0.05
12 11:53 W 6 4.83 Light Rain Fog/Mist BKN008 OVC025 25.6 23.3 87% 27 76.68 1022.2
12 10:53 S 7 9.66 Fog/Mist SCT008 BKN013 OVC036 25.6 23.3 87% 27 76.66 1021.9
12 09:53 SW 13 16.09 Overcast SCT009 BKN014 OVC046 26.1 23.3 85% 28 76.63 1021.4
12 08:53 S 7 16.09 Partly Cloudy SCT013 SCT055 26.1 22.8 82% 28 76.63 1021.5
Date Time (edt) Wind (kph) Vis. (km) Weather Sky Cond. Air Dwpt Max. Min. Relative Humidity Wind Chill (°C) Heat Index (°C) altimeter (cm) sea level (mb) 1 hr 3 hr 6 hr
6 hour
Temperature (ºC) Pressure Precipitation (cm)